Find Starlink 37953

NORAD ID: 69702 Int'l Des: 2026-146 Owner: SPXS Country: US Constellation: starlink operational
LEO

現在のビュー

3D地球を読み込み中...

About Starlink 37953

Starlink 37953 (NORAD 69702) is a starlink constellation satellite launched Jun 25, 2026 by SPXS of US. It operates in LEO orbit with a mass of 575.00 kg.

Starlink 37953について

説明を読み込み中...

次回通過

Passes for default location (London). Set your location on the main map for personalized predictions.

高度履歴

Loading altitude history...

軌道要素

1 69702U 26146B 26178.08136881 .00045774 76014-5 15496-3 0 9990
2 69702 42.0843 113.1423 0212716 254.1579 103.5728 15.62384625 68
Epoch: Jun 27, 2026 • Age: 5 hours

現在のステータス

高度 488.4 km
速度 7.57 km/s
衛星直下点 36.68°N, 144.76°W
打ち上げ日 Jun 25, 2026
運用期間 2 days
タイプ internet

技術仕様

分類 Payload
質量 575.00 kg
乾燥質量 530.00 kg
総質量 575.00 kg
長さ 0.30 m
直径 4.10 m
スパン 29.00 m
形状 Box + pan
製造者 SPXS
バスタイプ Starlink V2MO
フェーズステータス In Orbit
所有者/国 SPXS/US

Most Searched